Kirksville, MO

12:36 AM CST on January 20, 2017 (GMT -0600)
Kirksville Regional

Weather History for KIRK - December, 2014

Change the Weather History Date:

Monday, December 29, 2014

  Actual Average Record
Temperature  
Mean Temperature 29 °F 26 °F  
Max Temperature 38 °F 35 °F 66 °F (1984)
Min Temperature 20 °F 18 °F -6 °F (1924)
Degree Days  
Heating Degree Days 36 39  
Month to date heating degree days 867 1045  
Since 1 July heating degree days 2188 2266  
Cooling Degree Days 0 0  
Month to date cooling degree days 0 0  
Year to date cooling degree days 958 939  
Moisture  
Dew Point 22 °F    
Average Humidity 74    
Maximum Humidity 96    
Minimum Humidity 52    
Precipitation  
Precipitation 0.00 in 0.04 in 0.56 in (1990)
Month to date precipitation 0.90 1.67  
Year to date precipitation 44.53 39.23  
Sea Level Pressure  
Sea Level Pressure 30.40 in    
Wind  
Wind Speed 8 mph (NNE)    
Max Wind Speed 20 mph    
Max Gust Speed 24 mph    
Visibility 10 miles    
Events      
T = Trace of Precipitation, MM = Missing Value Source: NWS Daily Summary

Daily Weather History Graph

Daily Weather History Graph

Search for Another Location

Airport or City:

Trip Planner

Search our weather history database for the weather conditions in past years. The results will help you decide how hot, cold, wet, or windy it might be!

Date:

Astronomy

Dec. 29, 2014 Rise Set
Actual Time 7:31 AM CST 4:52 PM CST
Civil Twilight 7:01 AM CST 5:23 PM CST
Nautical Twilight 6:27 AM CST 5:57 PM CST
Astronomical Twilight 5:54 AM CST 6:30 PM CST
Moon 12:29 PM CST (12/29) 12:49 AM CST (12/29)
Length of Visible Light 10h 22m
Length of Day
9h 21m
First Quarter, 61% of the Moon is Illuminated
Dec 29
First Quarter
Jan 4
Full
Jan 13
Last Quarter
Jan 20
New
Jan 26
First Quarter

Hourly Weather History & Observations

Time (CST) Temp. Windchill Dew Point Humidity Pressure Visibility Wind Dir Wind Speed Gust Speed Precip Events Conditions
12:55 AM 25.0 °F - 23.0 °F 92% 30.27 in 10.0 mi Calm Calm - N/A   Overcast
1:55 AM 26.1 °F - 23.0 °F 88% 30.28 in 10.0 mi Calm Calm - N/A   Overcast
2:55 AM 25.0 °F - 21.9 °F 88% 30.28 in 10.0 mi Calm Calm - N/A   Overcast
3:55 AM 21.9 °F 15.7 °F 19.0 °F 89% 30.28 in 10.0 mi East 4.6 mph - N/A   Scattered Clouds
4:55 AM 21.9 °F 17.2 °F 19.0 °F 89% 30.29 in 10.0 mi East 3.5 mph - N/A   Mostly Cloudy
5:55 AM 21.9 °F - 19.9 °F 92% 30.30 in 10.0 mi Calm Calm - N/A   Clear
6:55 AM 21.0 °F 14.6 °F 18.0 °F 88% 30.33 in 10.0 mi NE 4.6 mph - N/A   Clear
7:55 AM 21.9 °F 12.5 °F 18.0 °F 85% 30.35 in 10.0 mi NNE 8.1 mph - N/A   Clear
8:55 AM 28.0 °F 21.7 °F 21.9 °F 78% 30.37 in 10.0 mi NE 5.8 mph - N/A   Clear
9:55 AM 32.0 °F 26.4 °F 25.0 °F 75% 30.39 in 10.0 mi ENE 5.8 mph - N/A   Clear
10:55 AM 35.1 °F 27.9 °F 23.0 °F 61% 30.39 in 10.0 mi ENE 9.2 mph - N/A   Clear
11:55 AM 37.0 °F 31.6 °F 21.0 °F 52% 30.38 in 10.0 mi ENE 6.9 mph - N/A   Clear
12:55 PM 37.9 °F 30.9 °F 21.9 °F 53% 30.36 in 10.0 mi NNE 10.4 mph - N/A   Clear
1:55 PM 37.9 °F 31.5 °F 21.9 °F 53% 30.35 in 10.0 mi NE 9.2 mph - N/A   Clear
2:55 PM 37.0 °F 29.3 °F 21.9 °F 54% 30.37 in 10.0 mi NNE 11.5 mph - N/A   Clear
3:55 PM 34.0 °F 24.6 °F 21.9 °F 61% 30.40 in 10.0 mi NNE 13.8 mph - N/A   Partly Cloudy
4:55 PM 32.0 °F 23.0 °F 24.1 °F 73% 30.43 in 9.0 mi NNE 11.5 mph - N/A   Overcast
5:55 PM 30.0 °F 19.1 °F 24.1 °F 79% 30.46 in 10.0 mi NNE 15.0 mph - N/A   Scattered Clouds
6:55 PM 28.9 °F 18.6 °F 24.1 °F 82% 30.49 in 9.0 mi NNE 12.7 mph - N/A   Overcast
7:16 PM 28.0 °F 17.5 °F 24.1 °F 85% 30.44 in 8.0 mi North 12.7 mph - N/A   Overcast
7:55 PM 28.0 °F 17.0 °F 24.1 °F 85% 30.51 in 8.0 mi North 13.8 mph - N/A   Overcast
8:16 PM 27.0 °F 15.2 °F 24.1 °F 89% 30.46 in 8.0 mi North 15.0 mph - N/A   Overcast
8:55 PM 27.0 °F 16.1 °F 21.9 °F 81% 30.53 in 9.0 mi North 12.7 mph - N/A   Overcast
9:12 PM 26.1 °F 14.5 °F 21.9 °F 84% 30.49 in 9.0 mi North 13.8 mph - N/A   Overcast
9:55 PM 26.1 °F 15.0 °F 21.0 °F 81% 30.56 in 10.0 mi North 12.7 mph - N/A   Overcast
10:55 PM 23.0 °F 11.1 °F 17.1 °F 78% 30.59 in 10.0 mi North 12.7 mph - N/A   Overcast
11:55 PM 19.4 °F 5.5 °F 14.0 °F 80% 30.56 in 10.0 mi North 15.0 mph - N/A   Overcast